Weather in Cheb

Czech Republic     50˚04′25″N   12˚22′18″E
temp.,
°C
wind,
m/s
gust,
m/s
humid.,
%
clouds,
%
prec.,
mm/h
press.,
hPa
HPBL,
m
17 january, sun
sun1701:00−9˚sw1196100 0.0 102221
04:00−10˚ssw1296100 0.0 102021
07:00−10˚sse1197100 0.0 101921
10:00−7˚sse1193100 0.0 102091
13:00−4˚sw0185100 0.0 1020300
16:00−6˚n0094100 0.0 102021
19:00−9˚sw119597 0.0 102321
22:00−9˚ssw129774 0.0 102321
18 january, mon
mon1801:00−6˚sw269787 0.3 1024206
04:00−4˚wsw21097100 0.6 1022422
07:00−1˚wnw4997100 1.4 1023652
10:00−1˚w4991100 0.3 1024776
13:00w499197 0.4 1024721
16:00−1˚w4992100 0.3 1024576
19:00−2˚wsw41095100 0.4 1024640
22:00−1˚wsw41093100 0.2 1024813
19 january, tue
tue1901:00−2˚sw41095100 0.3 1023688
04:00−2˚sw41093100 0.1 1020742
07:00−5˚ssw41194100 0.1 1019400
10:00−3˚sw61492100 0.2 1016684
13:00−1˚sw81695100 3.9 1014772
16:00+1˚wsw61588100 1.2 1012928
19:00+1˚wsw61591100 1.2 1012931
22:00+1˚sw5159299 0.0 1012710
20 january, wed
wed2001:00−2˚ssw399298 0.0 1011269
04:00−4˚s389388 0.0 1010192
07:00−4˚ssw3109277 0.0 1010235
10:00−1˚ssw3128782 0.0 1009381
13:00+1˚ssw398991 0.0 1008323
16:00s2589100 0.0 1006170
19:00−2˚s1282100 0.0 100521
22:00−3˚sse1179100 0.0 100521
21 january, thu
thu2101:00−4˚s118376 0.0 100421
04:00−4˚ese1286100 0.0 100221
07:00−4˚s2292100 0.0 100226
10:00−1˚s2489100 0.0 1002174
13:00+2˚sw5139799 0.1 1004835
16:00+1˚sw4129292 0.1 1004934
19:00+1˚ssw4139582 0.1 1004921
22:00−1˚ssw4119778 0.0 1004553